Location: Kawakawa
(35.3830°S, 174.0670°E)
Time: 13:25:58
(UTC+13:00)

Cosmos 292 Rocket - Pass Details

Date: 24 January 2019
Orbit: 673 x 695 km, 74.0° (Epoch: 18 February)

Event Time Altitude Azimuth Distance (km) Brightness Sun altitude
Rises 21:37:18 0° 199° (SSW) 3,059 8.1 -11.5°
Reaches altitude 10° 21:39:37 10° 200° (SSW) 2,138 7.2 -11.8°
Maximum altitude 21:44:26 77° 286° (WNW) 705 3.9 -12.7°
Enters shadow 21:49:06 11° 11° (N) 2,085 5.8 -13.4°
